IRIDIUM 920 (24871 NORAD) Tracking and Keplerian Element Data

This shows tracking and keplerian element data for the satellite.

Feedback or suggestion? Click here.




ElementValue
Catalog24871
NameIRIDIUM 920
Epoch Orbit44738
Epoch Day34.93867704
Epoch Year2025
RAAN270.3357
Inclination86.394
Eccentricity0.0012203
Argument of Perigee152.4272
Mean Anonmoly207.7577
Mean Motion14.4131811
Decay Rate7.76E-06
L11 24871U 97034C 25034.93867704 .00000776 00000+0 23380-3 0 9991
L22 24871 86.3940 270.3357 0012203 152.4272 207.7577 14.41318110447387



Live tracking and technical data element details for IRIDIUM 920 (NORAD 24871). IRIDIUM 920 can be tracked NOW for your location showing map with azimuth and elevation plus other details from your city location.







IsCatalogInMostPopularTable: catalog: 24871, numindb: 467
Update: records affected: 1



GetName: 24871 IRIDIUM 920

Hit Count: updated at: Sat, 17 May 2025 09:39:26 GMT